Вернуться в каталог

CZ-6A DEB

АктивенSSO
NORAD 55548·DEBRIS·🇨🇳 China

Запущен Nov 11, 2022 с Taiyuan Satellite Launch Center

Loading…

Ближайшие Пролёты (ближайшие 24 часа)

TLE

СвежийSource: Space-Track

Эпоха: Sep 14, 2026, 12:24 UTC

1 55548U 22151YW  26257.51697771  .00002407  00000-0  82301-3 0  9993
2 55548  98.6814 276.2126 0066378 210.1600 149.5757 14.35986325199554

Отслеживайте CZ-6A DEB в реальном времени с AllMySat

Download on the App Store